Location: Unspecified
(0.0000°N, 0.0000°E)
Time: 23:49:23
(UTC+00:00)

CORVUS BC2 - Pass Details

Date: 18 February 2026
Orbit: 540 x 560 km, 97.4° (Epoch: 7 March)

Event Time Altitude Azimuth Distance (km) Brightness Sun altitude
Rises 04:22:21 0° 169° (S) 2,748 ? -27.3°
Reaches altitude 10° 04:24:30 10° 169° (S) 1,849 ? -26.8°
Enters shadow 04:26:44 32° 169° (SSE) 965 ? -26.2°
